Location: Bismarck
(46.7731°N, 100.8200°W)
Time: 01:32:56
(UTC-06:00)

ISS - All Passes

Search period start: 18 December 2014 00:00
Search period end: 28 December 2014 00:00
Orbit: 404 x 415 km, 51.6° (Epoch: 18 December)

Date Brightness Start Highest point End Pass type
(mag) Time Alt. Az. Time Alt. Az. Time Alt. Az.
18 Dec - 14:33:15 10° S 14:35:17 15° SE 14:37:19 10° E daylight
18 Dec - 16:08:09 10° WSW 16:11:27 86° SSE 16:14:46 10° ENE daylight
18 Dec - 17:45:12 10° WNW 17:48:17 36° N 17:51:22 10° ENE visible
18 Dec - 19:22:12 10° WNW 19:25:21 40° NNE 19:28:28 10° E visible
18 Dec - 20:58:48 10° WNW 21:02:03 58° SSW 21:05:16 10° SE night (unlit)
19 Dec - 15:17:34 10° SW 15:20:48 54° SSE 15:24:02 10° ENE daylight
19 Dec - 16:54:19 10° W 16:57:28 42° NNW 17:00:38 10° ENE daylight
19 Dec - 18:31:27 10° WNW 18:34:31 35° N 18:37:35 10° ENE visible
19 Dec - 20:08:04 10° WNW 20:11:22 89° NNE 20:14:39 10° ESE visible
19 Dec - 21:45:25 10° W 21:47:34 16° SW 21:49:41 10° S night (unlit)
20 Dec - 14:27:09 10° SSW 14:30:09 33° SE 14:33:09 10° ENE daylight
20 Dec - 16:03:23 10° W 16:06:38 54° NNW 16:09:53 10° ENE daylight
20 Dec - 17:40:35 10° WNW 17:43:37 33° N 17:46:39 10° ENE visible
20 Dec - 19:17:19 10° WNW 19:20:35 61° NNE 19:23:50 10° ESE visible
20 Dec - 20:54:10 10° W 20:56:59 27° SW 20:59:48 10° SSE visible
21 Dec - 13:37:00 10° S 13:39:30 20° SE 13:42:00 10° E daylight
21 Dec - 15:12:28 10° WSW 15:15:47 77° NNW 15:19:05 10° ENE daylight
21 Dec - 16:49:37 10° WNW 16:52:40 34° N 16:55:43 10° ENE daylight
21 Dec - 18:26:30 10° WNW 18:29:42 45° NNE 18:32:52 10° E visible
21 Dec - 20:03:08 10° WNW 20:06:17 44° SW 20:09:25 10° SE visible
22 Dec - 12:47:30 10° SSE 12:48:52 12° SE 12:50:13 10° ESE daylight
22 Dec - 14:21:38 10° SW 14:24:55 70° SSE 14:28:13 10° ENE daylight
22 Dec - 15:58:33 10° W 16:01:40 38° N 16:04:47 10° ENE daylight
22 Dec - 17:35:36 10° WNW 17:38:43 37° N 17:41:49 10° E visible
22 Dec - 19:12:12 10° WNW 19:15:29 73° SSW 19:18:44 10° SE visible
22 Dec - 20:50:06 10° WSW 20:51:32 12° SW 20:52:59 10° SSW visible
23 Dec - 13:30:55 10° SW 13:34:04 42° SE 13:37:13 10° ENE daylight
23 Dec - 15:07:26 10° W 15:10:38 46° NNW 15:13:51 10° ENE daylight
23 Dec - 16:44:36 10° WNW 16:47:39 34° N 16:50:42 10° ENE daylight
23 Dec - 18:21:15 10° WNW 18:24:33 74° NNE 18:27:50 10° ESE visible
23 Dec - 19:58:18 10° W 20:00:50 21° SW 20:03:21 10° S visible
24 Dec - 12:40:25 10° SSW 12:43:13 26° SE 12:46:02 10° E daylight
24 Dec - 14:16:19 10° WSW 14:19:36 63° NNW 14:22:53 10° ENE daylight
24 Dec - 15:53:29 10° WNW 15:56:32 33° N 15:59:34 10° ENE daylight
24 Dec - 17:30:17 10° WNW 17:33:31 52° NNE 17:36:44 10° E visible
24 Dec - 19:06:59 10° WNW 19:10:00 34° SW 19:13:00 10° SSE visible
25 Dec - 11:50:18 10° S 11:52:23 16° SE 11:54:28 10° E daylight
25 Dec - 13:25:14 10° WSW 13:28:32 88° SSE 13:31:51 10° ENE daylight
25 Dec - 15:02:16 10° WNW 15:05:21 35° N 15:08:26 10° ENE daylight
25 Dec - 16:39:14 10° WNW 16:42:23 41° NNE 16:45:31 10° E daylight
25 Dec - 18:15:49 10° WNW 18:19:03 57° SSW 18:22:16 10° SE visible
26 Dec - 12:34:15 10° SW 12:37:29 55° SSE 12:40:44 10° ENE daylight
26 Dec - 14:10:59 10° W 14:14:08 41° NNW 14:17:18 10° ENE daylight
26 Dec - 15:48:05 10° WNW 15:51:10 35° N 15:54:14 10° ENE daylight
26 Dec - 17:24:41 10° WNW 17:27:59 90° SE 17:31:16 10° ESE daylight
26 Dec - 19:02:02 10° W 19:04:09 16° SW 19:06:15 10° S visible
27 Dec - 11:43:26 10° SSW 11:46:26 33° SE 11:49:27 10° ENE daylight
27 Dec - 13:19:39 10° W 13:22:54 54° NNW 13:26:09 10° ENE daylight
27 Dec - 14:56:50 10° WNW 14:59:52 33° N 15:02:55 10° ENE daylight
27 Dec - 16:33:32 10° WNW 16:36:48 62° NNE 16:40:04 10° ESE daylight
27 Dec - 18:10:21 10° W 18:13:11 27° SW 18:15:59 10° SSE visible
